contact:dominique.lefevre@mio.osupytheas.fr, maurice.libes@osupytheas.fr, didier.mallarino@osupytheas.fr
Project:EMSO http://www.emso-fr.org/EMSO-France
Depth: 2436.0 m
Title:EMSO Ligure Ouest : Data MII capteur OXYGEN
DateTime,Latitude,Longitude,Optode-Type,Optode_Serial,Oxygen,Saturation_Oxygen,Temperature
DateTime,Latitude,Longitude,Optode-Type,Optode_Serial,µmol.l-1,%,degC
2019-05-24T00:02:11,42.805,6.029,4330,1995,195.140,59.685,13.294
2019-05-24T00:05:11,42.805,6.029,4330,1995,195.147,59.688,13.295
2019-05-24T00:08:11,42.805,6.029,4330,1995,195.167,59.697,13.297
2019-05-24T00:11:11,42.805,6.029,4330,1995,195.169,59.696,13.296
2019-05-24T00:14:11,42.805,6.029,4330,1995,195.080,59.670,13.297
2019-05-24T00:17:11,42.805,6.029,4330,1995,194.892,59.613,13.297
2019-05-24T00:20:11,42.805,6.029,4330,1995,194.760,59.569,13.295
2019-05-24T00:23:11,42.805,6.029,4330,1995,195.009,59.647,13.296
2019-05-24T00:26:11,42.805,6.029,4330,1995,195.063,59.666,13.298
2019-05-24T00:29:11,42.805,6.029,4330,1995,195.064,59.666,13.298
2019-05-24T00:32:11,42.805,6.029,4330,1995,194.930,59.627,13.299
2019-05-24T00:35:11,42.805,6.029,4330,1995,194.991,59.647,13.300
2019-05-24T00:38:11,42.805,6.029,4330,1995,194.932,59.630,13.301
2019-05-24T00:41:11,42.805,6.029,4330,1995,194.811,59.586,13.295
2019-05-24T00:44:11,42.805,6.029,4330,1995,194.841,59.599,13.298
2019-05-24T00:47:11,42.805,6.029,4330,1995,194.827,59.595,13.299
2019-05-24T00:50:11,42.805,6.029,4330,1995,194.731,59.564,13.298
2019-05-24T00:53:11,42.805,6.029,4330,1995,194.765,59.575,13.298
2019-05-24T00:56:11,42.805,6.029,4330,1995,194.578,59.514,13.295
2019-05-24T00:59:11,42.805,6.029,4330,1995,194.821,59.587,13.294
2019-05-24T01:02:11,42.805,6.029,4330,1995,195.068,59.666,13.296
2019-05-24T01:05:11,42.805,6.029,4330,1995,195.035,59.656,13.297
2019-05-24T01:08:11,42.805,6.029,4330,1995,194.902,59.615,13.296
2019-05-24T01:11:11,42.805,6.029,4330,1995,194.897,59.616,13.298
2019-05-24T01:14:11,42.805,6.029,4330,1995,194.906,59.618,13.298
2019-05-24T01:17:11,42.805,6.029,4330,1995,194.987,59.635,13.292
2019-05-24T01:20:11,42.805,6.029,4330,1995,194.991,59.640,13.295
2019-05-24T01:23:11,42.805,6.029,4330,1995,194.958,59.631,13.296
2019-05-24T01:26:11,42.805,6.029,4330,1995,194.916,59.617,13.295
2019-05-24T01:29:11,42.805,6.029,4330,1995,194.943,59.622,13.293
2019-05-24T01:32:11,42.805,6.029,4330,1995,195.031,59.650,13.293
2019-05-24T01:35:11,42.805,6.029,4330,1995,195.006,59.642,13.293
2019-05-24T01:38:11,42.805,6.029,4330,1995,195.056,59.656,13.292
2019-05-24T01:41:11,42.805,6.029,4330,1995,194.967,59.629,13.292
2019-05-24T01:44:11,42.805,6.029,4330,1995,195.072,59.661,13.292
2019-05-24T01:47:11,42.805,6.029,4330,1995,195.120,59.675,13.291
2019-05-24T01:50:11,42.805,6.029,4330,1995,195.201,59.699,13.291
2019-05-24T01:53:11,42.805,6.029,4330,1995,195.142,59.682,13.292
2019-05-24T01:56:11,42.805,6.029,4330,1995,195.163,59.689,13.292
2019-05-24T01:59:11,42.805,6.029,4330,1995,195.172,59.690,13.291
2019-05-24T02:02:11,42.805,6.029,4330,1995,195.200,59.701,13.292
2019-05-24T02:05:11,42.805,6.029,4330,1995,195.213,59.704,13.292
2019-05-24T02:08:11,42.805,6.029,4330,1995,195.322,59.737,13.292
2019-05-24T02:11:11,42.805,6.029,4330,1995,195.307,59.734,13.293
2019-05-24T02:14:11,42.805,6.029,4330,1995,195.371,59.752,13.292
2019-05-24T02:17:11,42.805,6.029,4330,1995,195.351,59.747,13.293
2019-05-24T02:20:11,42.805,6.029,4330,1995,195.348,59.748,13.294
2019-05-24T02:23:11,42.805,6.029,4330,1995,195.292,59.730,13.293
2019-05-24T02:26:11,42.805,6.029,4330,1995,195.373,59.753,13.292
2019-05-24T02:29:11,42.805,6.029,4330,1995,195.407,59.764,13.293
2019-05-24T02:32:11,42.805,6.029,4330,1995,195.318,59.738,13.293
2019-05-24T02:35:11,42.805,6.029,4330,1995,195.346,59.745,13.292
2019-05-24T02:38:11,42.805,6.029,4330,1995,195.229,59.709,13.292
2019-05-24T02:41:11,42.805,6.029,4330,1995,195.162,59.689,13.292
2019-05-24T02:44:11,42.805,6.029,4330,1995,195.316,59.736,13.293
2019-05-24T02:47:11,42.805,6.029,4330,1995,195.367,59.753,13.293
2019-05-24T02:50:11,42.805,6.029,4330,1995,195.307,59.731,13.290
2019-05-24T02:53:11,42.805,6.029,4330,1995,195.398,59.764,13.295
2019-05-24T02:56:11,42.805,6.029,4330,1995,195.414,59.768,13.294
2019-05-24T02:59:11,42.805,6.029,4330,1995,195.271,59.726,13.295
2019-05-24T03:02:11,42.805,6.029,4330,1995,195.363,59.749,13.291
2019-05-24T03:05:11,42.805,6.029,4330,1995,195.320,59.740,13.294
2019-05-24T03:08:11,42.805,6.029,4330,1995,195.244,59.718,13.295
2019-05-24T03:11:11,42.805,6.029,4330,1995,195.254,59.717,13.293
2019-05-24T03:14:11,42.805,6.029,4330,1995,195.335,59.745,13.294
2019-05-24T03:17:11,42.805,6.029,4330,1995,195.328,59.741,13.294
2019-05-24T03:20:11,42.805,6.029,4330,1995,195.313,59.737,13.294
2019-05-24T03:23:11,42.805,6.029,4330,1995,195.301,59.733,13.293
2019-05-24T03:26:11,42.805,6.029,4330,1995,195.291,59.729,13.292
2019-05-24T03:29:11,42.805,6.029,4330,1995,195.250,59.718,13.294
2019-05-24T03:32:11,42.805,6.029,4330,1995,195.329,59.742,13.293
2019-05-24T03:35:11,42.805,6.029,4330,1995,195.462,59.779,13.291
2019-05-24T03:38:11,42.805,6.029,4330,1995,195.432,59.768,13.290
2019-05-24T03:41:11,42.805,6.029,4330,1995,195.408,59.763,13.291
2019-05-24T03:44:11,42.805,6.029,4330,1995,195.443,59.773,13.291
2019-05-24T03:47:11,42.805,6.029,4330,1995,195.424,59.766,13.290
2019-05-24T03:50:11,42.805,6.029,4330,1995,195.385,59.754,13.290
2019-05-24T03:53:11,42.805,6.029,4330,1995,195.368,59.748,13.289
2019-05-24T03:56:11,42.805,6.029,4330,1995,195.291,59.724,13.289
2019-05-24T03:59:11,42.805,6.029,4330,1995,195.323,59.733,13.289
2019-05-24T04:02:11,42.805,6.029,4330,1995,195.283,59.721,13.289
2019-05-24T04:05:11,42.805,6.029,4330,1995,195.342,59.741,13.290
2019-05-24T04:08:11,42.805,6.029,4330,1995,195.151,59.681,13.289
2019-05-24T04:11:11,42.805,6.029,4330,1995,195.170,59.687,13.289
2019-05-24T04:14:11,42.805,6.029,4330,1995,195.326,59.735,13.289
2019-05-24T04:17:11,42.805,6.029,4330,1995,195.300,59.727,13.289
2019-05-24T04:20:11,42.805,6.029,4330,1995,195.348,59.741,13.288
2019-05-24T04:23:11,42.805,6.029,4330,1995,195.248,59.712,13.290
2019-05-24T04:26:11,42.805,6.029,4330,1995,195.287,59.723,13.289
2019-05-24T04:29:11,42.805,6.029,4330,1995,195.368,59.748,13.289
2019-05-24T04:32:11,42.805,6.029,4330,1995,195.232,59.707,13.289
2019-05-24T04:35:11,42.805,6.029,4330,1995,195.253,59.712,13.289
2019-05-24T04:38:11,42.805,6.029,4330,1995,195.284,59.722,13.289
2019-05-24T04:41:11,42.805,6.029,4330,1995,195.279,59.722,13.290
2019-05-24T04:44:11,42.805,6.029,4330,1995,195.428,59.766,13.289
2019-05-24T04:47:11,42.805,6.029,4330,1995,195.370,59.749,13.290
2019-05-24T04:50:11,42.805,6.029,4330,1995,195.326,59.736,13.290
2019-05-24T04:53:11,42.805,6.029,4330,1995,195.214,59.702,13.290
2019-05-24T04:56:11,42.805,6.029,4330,1995,195.114,59.671,13.290
2019-05-24T04:59:11,42.805,6.029,4330,1995,195.252,59.713,13.290
2019-05-24T05:02:11,42.805,6.029,4330,1995,195.278,59.721,13.290
2019-05-24T05:05:11,42.805,6.029,4330,1995,195.348,59.742,13.289
2019-05-24T05:08:11,42.805,6.029,4330,1995,195.289,59.725,13.290
2019-05-24T05:11:11,42.805,6.029,4330,1995,195.301,59.729,13.290
2019-05-24T05:14:11,42.805,6.029,4330,1995,195.383,59.753,13.290
2019-05-24T05:17:11,42.805,6.029,4330,1995,195.283,59.723,13.290
2019-05-24T05:20:11,42.805,6.029,4330,1995,195.206,59.701,13.291
2019-05-24T05:23:11,42.805,6.029,4330,1995,195.214,59.702,13.290
2019-05-24T05:26:11,42.805,6.029,4330,1995,195.284,59.724,13.291
2019-05-24T05:29:11,42.805,6.029,4330,1995,195.153,59.684,13.291
2019-05-24T05:32:11,42.805,6.029,4330,1995,195.252,59.713,13.290
2019-05-24T05:35:11,42.805,6.029,4330,1995,195.174,59.691,13.291
2019-05-24T05:38:11,42.805,6.029,4330,1995,195.220,59.704,13.290
2019-05-24T05:41:11,42.805,6.029,4330,1995,195.139,59.680,13.291
2019-05-24T05:44:11,42.805,6.029,4330,1995,195.094,59.666,13.291
2019-05-24T05:47:11,42.805,6.029,4330,1995,195.182,59.693,13.291
2019-05-24T05:50:11,42.805,6.029,4330,1995,195.143,59.682,13.291
2019-05-24T05:53:11,42.805,6.029,4330,1995,195.191,59.695,13.291
2019-05-24T05:56:11,42.805,6.029,4330,1995,195.144,59.681,13.290
2019-05-24T05:59:11,42.805,6.029,4330,1995,195.126,59.676,13.290
2019-05-24T06:02:11,42.805,6.029,4330,1995,195.180,59.692,13.290
2019-05-24T06:05:11,42.805,6.029,4330,1995,195.257,59.715,13.290
2019-05-24T06:08:11,42.805,6.029,4330,1995,195.234,59.709,13.291
2019-05-24T06:11:11,42.805,6.029,4330,1995,195.195,59.696,13.290
2019-05-24T06:14:11,42.805,6.029,4330,1995,195.218,59.703,13.290
2019-05-24T06:17:11,42.805,6.029,4330,1995,195.297,59.727,13.290
2019-05-24T06:20:11,42.805,6.029,4330,1995,195.424,59.766,13.290
2019-05-24T06:23:11,42.805,6.029,4330,1995,195.340,59.741,13.291
2019-05-24T06:26:11,42.805,6.029,4330,1995,195.256,59.715,13.291
2019-05-24T06:29:11,42.805,6.029,4330,1995,195.296,59.728,13.291
2019-05-24T06:32:11,42.805,6.029,4330,1995,195.298,59.729,13.291
2019-05-24T06:35:11,42.805,6.029,4330,1995,195.260,59.717,13.291
2019-05-24T06:38:11,42.805,6.029,4330,1995,195.287,59.726,13.291
2019-05-24T06:41:11,42.805,6.029,4330,1995,195.244,59.714,13.292
2019-05-24T06:44:11,42.805,6.029,4330,1995,195.117,59.674,13.291
2019-05-24T06:47:11,42.805,6.029,4330,1995,195.217,59.704,13.291
2019-05-24T06:50:11,42.805,6.029,4330,1995,195.403,59.761,13.291
2019-05-24T06:53:11,42.805,6.029,4330,1995,195.370,59.751,13.291
2019-05-24T06:56:11,42.805,6.029,4330,1995,195.437,59.772,13.292
2019-05-24T06:59:11,42.805,6.029,4330,1995,195.403,59.760,13.291
2019-05-24T07:02:11,42.805,6.029,4330,1995,195.450,59.777,13.292
2019-05-24T07:05:11,42.805,6.029,4330,1995,195.401,59.763,13.293
2019-05-24T07:08:11,42.805,6.029,4330,1995,195.274,59.724,13.293
2019-05-24T07:11:11,42.805,6.029,4330,1995,195.212,59.706,13.294
2019-05-24T07:14:11,42.805,6.029,4330,1995,195.234,59.711,13.293
2019-05-24T07:17:11,42.805,6.029,4330,1995,195.236,59.713,13.293
2019-05-24T07:20:11,42.805,6.029,4330,1995,195.312,59.733,13.291
2019-05-24T07:23:11,42.805,6.029,4330,1995,195.431,59.771,13.292
2019-05-24T07:26:11,42.805,6.029,4330,1995,195.463,59.781,13.292
2019-05-24T07:29:11,42.805,6.029,4330,1995,195.464,59.783,13.294
2019-05-24T07:32:11,42.805,6.029,4330,1995,195.356,59.750,13.294
2019-05-24T07:35:11,42.805,6.029,4330,1995,195.333,59.743,13.294
2019-05-24T07:38:11,42.805,6.029,4330,1995,195.307,59.736,13.294
2019-05-24T07:41:11,42.805,6.029,4330,1995,195.216,59.709,13.295
2019-05-24T07:44:11,42.805,6.029,4330,1995,195.114,59.678,13.295
2019-05-24T07:47:11,42.805,6.029,4330,1995,195.146,59.687,13.294
2019-05-24T07:50:11,42.805,6.029,4330,1995,195.136,59.684,13.294
2019-05-24T07:53:11,42.805,6.029,4330,1995,195.152,59.689,13.294
2019-05-24T07:56:11,42.805,6.029,4330,1995,195.189,59.697,13.292
2019-05-24T07:59:11,42.805,6.029,4330,1995,195.336,59.742,13.292
2019-05-24T08:02:11,42.805,6.029,4330,1995,195.395,59.759,13.291
2019-05-24T08:05:11,42.805,6.029,4330,1995,195.448,59.775,13.291
2019-05-24T08:08:11,42.805,6.029,4330,1995,195.440,59.773,13.292
2019-05-24T08:11:11,42.805,6.029,4330,1995,195.351,59.746,13.292
2019-05-24T08:14:11,42.805,6.029,4330,1995,195.369,59.750,13.290
2019-05-24T08:17:11,42.805,6.029,4330,1995,195.377,59.753,13.291
2019-05-24T08:20:11,42.805,6.029,4330,1995,195.283,59.727,13.293
2019-05-24T08:23:11,42.805,6.029,4330,1995,195.190,59.699,13.293
2019-05-24T08:26:11,42.805,6.029,4330,1995,195.119,59.677,13.294
2019-05-24T08:29:11,42.805,6.029,4330,1995,195.069,59.663,13.294
2019-05-24T08:32:11,42.805,6.029,4330,1995,195.027,59.651,13.295
2019-05-24T08:35:11,42.805,6.029,4330,1995,195.041,59.651,13.291
2019-05-24T08:38:11,42.805,6.029,4330,1995,195.049,59.652,13.291
2019-05-24T08:41:11,42.805,6.029,4330,1995,195.229,59.709,13.292
2019-05-24T08:44:11,42.805,6.029,4330,1995,195.149,59.689,13.295
2019-05-24T08:47:11,42.805,6.029,4330,1995,195.220,59.705,13.291
2019-05-24T08:50:11,42.805,6.029,4330,1995,195.319,59.736,13.292
2019-05-24T08:53:11,42.805,6.029,4330,1995,195.298,59.730,13.292
2019-05-24T08:56:11,42.805,6.029,4330,1995,195.323,59.740,13.293
2019-05-24T08:59:11,42.805,6.029,4330,1995,195.243,59.715,13.293
2019-05-24T09:02:11,42.805,6.029,4330,1995,195.270,59.721,13.292
2019-05-24T09:05:11,42.805,6.029,4330,1995,195.277,59.722,13.291
2019-05-24T09:08:11,42.805,6.029,4330,1995,195.279,59.724,13.292
2019-05-24T09:11:11,42.805,6.029,4330,1995,195.224,59.707,13.291
2019-05-24T09:14:11,42.805,6.029,4330,1995,195.186,59.696,13.292
2019-05-24T09:17:11,42.805,6.029,4330,1995,195.188,59.696,13.292
2019-05-24T09:20:11,42.805,6.029,4330,1995,195.238,59.712,13.293
2019-05-24T09:23:11,42.805,6.029,4330,1995,195.195,59.700,13.293
2019-05-24T09:26:11,42.805,6.029,4330,1995,195.216,59.707,13.294
2019-05-24T09:29:11,42.805,6.029,4330,1995,195.152,59.687,13.293
2019-05-24T09:32:11,42.805,6.029,4330,1995,195.051,59.657,13.294
2019-05-24T09:35:11,42.805,6.029,4330,1995,194.992,59.639,13.294
2019-05-24T09:38:11,42.805,6.029,4330,1995,194.917,59.618,13.295
2019-05-24T09:41:11,42.805,6.029,4330,1995,194.877,59.606,13.296
2019-05-24T09:44:11,42.805,6.029,4330,1995,195.028,59.652,13.296
2019-05-24T09:47:11,42.805,6.029,4330,1995,195.053,59.659,13.295
2019-05-24T09:50:11,42.805,6.029,4330,1995,195.003,59.643,13.294
2019-05-24T09:53:11,42.805,6.029,4330,1995,194.838,59.592,13.294
2019-05-24T09:56:11,42.805,6.029,4330,1995,194.843,59.595,13.295
2019-05-24T09:59:11,42.805,6.029,4330,1995,194.782,59.577,13.295
2019-05-24T10:02:11,42.805,6.029,4330,1995,194.644,59.536,13.296
2019-05-24T10:05:11,42.805,6.029,4330,1995,194.553,59.510,13.297
2019-05-24T10:08:11,42.805,6.029,4330,1995,194.452,59.477,13.296
2019-05-24T10:11:11,42.805,6.029,4330,1995,194.257,59.418,13.297
2019-05-24T10:14:11,42.805,6.029,4330,1995,194.194,59.399,13.297
2019-05-24T10:17:11,42.805,6.029,4330,1995,194.113,59.373,13.296
2019-05-24T10:20:11,42.805,6.029,4330,1995,194.423,59.466,13.294
2019-05-24T10:23:11,42.805,6.029,4330,1995,194.562,59.507,13.293
2019-05-24T10:26:11,42.805,6.029,4330,1995,194.706,59.552,13.294
2019-05-24T10:29:11,42.805,6.029,4330,1995,194.734,59.562,13.295
2019-05-24T10:32:11,42.805,6.029,4330,1995,194.604,59.525,13.297
2019-05-24T10:35:11,42.805,6.029,4330,1995,194.464,59.484,13.299
2019-05-24T10:38:11,42.805,6.029,4330,1995,194.333,59.447,13.301
2019-05-24T10:41:11,42.805,6.029,4330,1995,194.387,59.460,13.299
2019-05-24T10:44:11,42.805,6.029,4330,1995,194.568,59.513,13.296
2019-05-24T10:47:11,42.805,6.029,4330,1995,194.712,59.557,13.296
2019-05-24T10:50:11,42.805,6.029,4330,1995,194.806,59.583,13.295
2019-05-24T10:53:11,42.805,6.029,4330,1995,194.867,59.608,13.299
2019-05-24T10:56:11,42.805,6.029,4330,1995,194.597,59.533,13.305
2019-05-24T10:59:11,42.805,6.029,4330,1995,194.353,59.459,13.305
2019-05-24T11:02:11,42.805,6.029,4330,1995,194.009,59.354,13.306
2019-05-24T11:05:11,42.805,6.029,4330,1995,193.664,59.250,13.307
2019-05-24T11:08:11,42.805,6.029,4330,1995,193.444,59.183,13.307
2019-05-24T11:11:11,42.805,6.029,4330,1995,193.340,59.149,13.306
2019-05-24T11:14:11,42.805,6.029,4330,1995,193.211,59.115,13.309
2019-05-24T11:17:11,42.805,6.029,4330,1995,193.314,59.145,13.308
2019-05-24T11:20:11,42.805,6.029,4330,1995,193.355,59.151,13.303
2019-05-24T11:23:11,42.805,6.029,4330,1995,193.268,59.123,13.302
2019-05-24T11:26:11,42.805,6.029,4330,1995,193.382,59.163,13.306
2019-05-24T11:29:11,42.805,6.029,4330,1995,193.455,59.181,13.303
2019-05-24T11:32:11,42.805,6.029,4330,1995,193.551,59.214,13.306
2019-05-24T11:35:11,42.805,6.029,4330,1995,193.445,59.179,13.304
2019-05-24T11:38:11,42.805,6.029,4330,1995,193.305,59.143,13.309
2019-05-24T11:41:11,42.805,6.029,4330,1995,193.259,59.126,13.307
2019-05-24T11:44:11,42.805,6.029,4330,1995,193.269,59.126,13.305
2019-05-24T11:47:11,42.805,6.029,4330,1995,193.385,59.160,13.303
2019-05-24T11:50:11,42.805,6.029,4330,1995,193.527,59.204,13.304
2019-05-24T11:53:11,42.805,6.029,4330,1995,193.597,59.226,13.304
2019-05-24T11:56:11,42.805,6.029,4330,1995,193.680,59.250,13.303
2019-05-24T11:59:11,42.805,6.029,4330,1995,193.701,59.254,13.301
2019-05-24T12:02:11,42.805,6.029,4330,1995,193.478,59.188,13.303
2019-05-24T12:05:11,42.805,6.029,4330,1995,193.569,59.211,13.300
2019-05-24T12:08:11,42.805,6.029,4330,1995,193.705,59.256,13.302
2019-05-24T12:11:11,42.805,6.029,4330,1995,193.807,59.286,13.301
2019-05-24T12:14:11,42.805,6.029,4330,1995,193.973,59.336,13.300
2019-05-24T12:17:11,42.805,6.029,4330,1995,194.048,59.355,13.297
2019-05-24T12:20:11,42.805,6.029,4330,1995,194.133,59.385,13.301
2019-05-24T12:23:11,42.805,6.029,4330,1995,194.035,59.358,13.302
2019-05-24T12:26:11,42.805,6.029,4330,1995,194.080,59.371,13.302
2019-05-24T12:29:11,42.805,6.029,4330,1995,193.929,59.321,13.299
2019-05-24T12:32:11,42.805,6.029,4330,1995,194.087,59.367,13.297
2019-05-24T12:35:11,42.805,6.029,4330,1995,194.172,59.393,13.297
2019-05-24T12:38:11,42.805,6.029,4330,1995,194.215,59.407,13.298
2019-05-24T12:41:11,42.805,6.029,4330,1995,194.249,59.412,13.294
2019-05-24T12:44:11,42.805,6.029,4330,1995,194.208,59.404,13.298
2019-05-24T12:47:11,42.805,6.029,4330,1995,194.331,59.438,13.295
2019-05-24T12:50:11,42.805,6.029,4330,1995,194.498,59.492,13.297
2019-05-24T12:53:11,42.805,6.029,4330,1995,194.377,59.454,13.296
2019-05-24T12:56:11,42.805,6.029,4330,1995,194.361,59.446,13.294
2019-05-24T12:59:11,42.805,6.029,4330,1995,194.544,59.503,13.294
2019-05-24T13:02:11,42.805,6.029,4330,1995,194.574,59.513,13.295
2019-05-24T13:05:11,42.805,6.029,4330,1995,194.455,59.476,13.295
2019-05-24T13:08:11,42.805,6.029,4330,1995,194.318,59.436,13.296
2019-05-24T13:11:11,42.805,6.029,4330,1995,194.400,59.461,13.296
2019-05-24T13:14:11,42.805,6.029,4330,1995,194.303,59.431,13.296
2019-05-24T13:17:11,42.805,6.029,4330,1995,194.393,59.457,13.295
2019-05-24T13:20:11,42.805,6.029,4330,1995,194.342,59.441,13.295
2019-05-24T13:23:11,42.805,6.029,4330,1995,194.577,59.514,13.295
2019-05-24T13:26:11,42.805,6.029,4330,1995,194.616,59.530,13.298
2019-05-24T13:29:11,42.805,6.029,4330,1995,194.756,59.568,13.295
2019-05-24T13:32:11,42.805,6.029,4330,1995,194.773,59.573,13.294
2019-05-24T13:35:11,42.805,6.029,4330,1995,194.830,59.593,13.296
2019-05-24T13:38:11,42.805,6.029,4330,1995,194.875,59.604,13.294
2019-05-24T13:41:11,42.805,6.029,4330,1995,194.740,59.568,13.299
2019-05-24T13:44:11,42.805,6.029,4330,1995,194.572,59.516,13.298
2019-05-24T13:47:11,42.805,6.029,4330,1995,194.543,59.506,13.297
2019-05-24T13:50:11,42.805,6.029,4330,1995,194.698,59.548,13.293
2019-05-24T13:53:11,42.805,6.029,4330,1995,194.639,59.538,13.299
2019-05-24T13:56:11,42.805,6.029,4330,1995,194.901,59.615,13.297
2019-05-24T13:59:11,42.805,6.029,4330,1995,194.922,59.615,13.292
2019-05-24T14:02:11,42.805,6.029,4330,1995,195.070,59.661,13.293
2019-05-24T14:05:11,42.805,6.029,4330,1995,194.992,59.637,13.293
2019-05-24T14:08:11,42.805,6.029,4330,1995,194.997,59.640,13.293
2019-05-24T14:11:11,42.805,6.029,4330,1995,194.910,59.617,13.296
2019-05-24T14:14:11,42.805,6.029,4330,1995,195.136,59.682,13.293
2019-05-24T14:17:11,42.805,6.029,4330,1995,195.231,59.708,13.291
2019-05-24T14:20:11,42.805,6.029,4330,1995,195.193,59.702,13.295
2019-05-24T14:23:11,42.805,6.029,4330,1995,195.151,59.686,13.292
2019-05-24T14:26:11,42.805,6.029,4330,1995,195.191,59.698,13.292
2019-05-24T14:29:11,42.805,6.029,4330,1995,195.238,59.712,13.293
2019-05-24T14:32:11,42.805,6.029,4330,1995,195.195,59.699,13.292
2019-05-24T14:35:11,42.805,6.029,4330,1995,195.239,59.711,13.292
2019-05-24T14:38:11,42.805,6.029,4330,1995,195.141,59.682,13.292
2019-05-24T14:41:11,42.805,6.029,4330,1995,195.229,59.709,13.292
2019-05-24T14:44:11,42.805,6.029,4330,1995,195.211,59.701,13.290
2019-05-24T14:47:11,42.805,6.029,4330,1995,195.273,59.722,13.291
2019-05-24T14:50:11,42.805,6.029,4330,1995,195.307,59.732,13.291
2019-05-24T14:53:11,42.805,6.029,4330,1995,195.382,59.753,13.290
2019-05-24T14:56:11,42.805,6.029,4330,1995,195.455,59.775,13.290
2019-05-24T14:59:11,42.805,6.029,4330,1995,195.311,59.733,13.291
2019-05-24T15:02:11,42.805,6.029,4330,1995,195.286,59.723,13.289
2019-05-24T15:05:11,42.805,6.029,4330,1995,195.306,59.729,13.289
2019-05-24T15:08:11,42.805,6.029,4330,1995,195.423,59.766,13.290
2019-05-24T15:11:11,42.805,6.029,4330,1995,195.336,59.741,13.291
2019-05-24T15:14:11,42.805,6.029,4330,1995,195.339,59.742,13.291
2019-05-24T15:17:11,42.805,6.029,4330,1995,195.242,59.714,13.292
2019-05-24T15:20:11,42.805,6.029,4330,1995,195.262,59.717,13.290
2019-05-24T15:23:11,42.805,6.029,4330,1995,195.314,59.731,13.289
2019-05-24T15:26:11,42.805,6.029,4330,1995,195.354,59.745,13.290
2019-05-24T15:29:11,42.805,6.029,4330,1995,195.327,59.739,13.292
2019-05-24T15:32:11,42.805,6.029,4330,1995,195.258,59.716,13.290
2019-05-24T15:35:11,42.805,6.029,4330,1995,195.282,59.723,13.290
2019-05-24T15:38:11,42.805,6.029,4330,1995,195.281,59.723,13.291
2019-05-24T15:41:11,42.805,6.029,4330,1995,195.329,59.740,13.292
2019-05-24T15:44:11,42.805,6.029,4330,1995,195.380,59.755,13.292
2019-05-24T15:47:11,42.805,6.029,4330,1995,195.368,59.751,13.291
2019-05-24T15:50:11,42.805,6.029,4330,1995,195.295,59.727,13.290
2019-05-24T15:53:11,42.805,6.029,4330,1995,195.316,59.735,13.291
2019-05-24T15:56:11,42.805,6.029,4330,1995,195.285,59.726,13.292
2019-05-24T15:59:11,42.805,6.029,4330,1995,195.303,59.733,13.293
2019-05-24T16:02:11,42.805,6.029,4330,1995,195.286,59.726,13.292
2019-05-24T16:05:11,42.805,6.029,4330,1995,195.225,59.711,13.294
2019-05-24T16:08:11,42.805,6.029,4330,1995,195.075,59.665,13.294
2019-05-24T16:11:11,42.805,6.029,4330,1995,195.081,59.666,13.294
2019-05-24T16:14:11,42.805,6.029,4330,1995,195.053,59.657,13.293
2019-05-24T16:17:11,42.805,6.029,4330,1995,195.078,59.667,13.295
2019-05-24T16:20:11,42.805,6.029,4330,1995,195.077,59.665,13.294
2019-05-24T16:23:11,42.805,6.029,4330,1995,195.050,59.659,13.295
2019-05-24T16:26:11,42.805,6.029,4330,1995,194.991,59.639,13.294
2019-05-24T16:29:11,42.805,6.029,4330,1995,194.832,59.589,13.293
2019-05-24T16:32:11,42.805,6.029,4330,1995,195.015,59.643,13.292
2019-05-24T16:35:11,42.805,6.029,4330,1995,195.077,59.663,13.293
2019-05-24T16:38:11,42.805,6.029,4330,1995,194.890,59.611,13.296
2019-05-24T16:41:11,42.805,6.029,4330,1995,195.022,59.649,13.294
2019-05-24T16:44:11,42.805,6.029,4330,1995,194.905,59.612,13.293
2019-05-24T16:47:11,42.805,6.029,4330,1995,194.952,59.625,13.292
2019-05-24T16:50:11,42.805,6.029,4330,1995,195.027,59.648,13.293
2019-05-24T16:53:11,42.805,6.029,4330,1995,194.945,59.620,13.291
2019-05-24T16:56:11,42.805,6.029,4330,1995,194.969,59.630,13.292
2019-05-24T16:59:11,42.805,6.029,4330,1995,194.975,59.632,13.293
2019-05-24T17:02:11,42.805,6.029,4330,1995,195.048,59.651,13.290
2019-05-24T17:05:11,42.805,6.029,4330,1995,195.237,59.710,13.291
2019-05-24T17:08:11,42.805,6.029,4330,1995,195.122,59.674,13.290
2019-05-24T17:11:11,42.805,6.029,4330,1995,195.106,59.672,13.292
2019-05-24T17:14:11,42.805,6.029,4330,1995,195.201,59.697,13.289
2019-05-24T17:17:11,42.805,6.029,4330,1995,195.212,59.701,13.290
2019-05-24T17:20:11,42.805,6.029,4330,1995,195.200,59.699,13.291
2019-05-24T17:23:11,42.805,6.029,4330,1995,195.172,59.693,13.293
2019-05-24T17:26:11,42.805,6.029,4330,1995,195.124,59.677,13.292
2019-05-24T17:29:11,42.805,6.029,4330,1995,195.039,59.649,13.291
2019-05-24T17:32:11,42.805,6.029,4330,1995,195.097,59.669,13.292
2019-05-24T17:35:11,42.805,6.029,4330,1995,195.035,59.648,13.291
2019-05-24T17:38:11,42.805,6.029,4330,1995,195.035,59.648,13.291
2019-05-24T17:41:11,42.805,6.029,4330,1995,195.072,59.660,13.291
2019-05-24T17:44:11,42.805,6.029,4330,1995,195.146,59.683,13.292
2019-05-24T17:47:11,42.805,6.029,4330,1995,195.155,59.685,13.291
2019-05-24T17:50:11,42.805,6.029,4330,1995,195.168,59.690,13.291
2019-05-24T17:53:11,42.805,6.029,4330,1995,195.112,59.674,13.293
2019-05-24T17:56:11,42.805,6.029,4330,1995,195.164,59.686,13.290
2019-05-24T17:59:11,42.805,6.029,4330,1995,195.165,59.690,13.292
2019-05-24T18:02:11,42.805,6.029,4330,1995,195.196,59.700,13.293
2019-05-24T18:05:11,42.805,6.029,4330,1995,195.206,59.701,13.291
2019-05-24T18:08:11,42.805,6.029,4330,1995,195.221,59.706,13.292